Regional Weather Roundup
Issued by NWS Charleston, WV

Home | Current Version | Previous Version | Graphics & Text | Print | Product List | Glossary On
Versions: 1 2 3 4 5 6 7 8 9 10 11 12 13 14 15 16 17 18 19 20 21 22 23 24 25 26 27 28 29 30 31 32 33 34 35 36 37 38 39 40 41 42 43 44 45 46 47 48 49 50
000
ASUS41 KRLX 070010
RWRRLX
West Virginia Regional Weather Roundup
National Weather Service Charleston WV
800 PM EDT WED MAY 06 2015

Note: "fair" indicates few or no clouds below 12,000 feet with no
significant weather and/or obstructions to visibility.

WVZ003-070100-
Northern Panhandle of West Virginia

CITY           SKY/WX    TMP DP  RH WIND       PRES   REMARKS
WHEELING       CLEAR     77  54  44 NW5       30.13S
$$

WVZ009-070100-
Northwest West Virginia

CITY           SKY/WX    TMP DP  RH WIND       PRES   REMARKS
PARKERSBURG    PTCLDY    78  56  46 CALM      30.13S
$$

WVZ006-070100-
Western West Virginia

CITY           SKY/WX    TMP DP  RH WIND       PRES   REMARKS
HUNTINGTON     CLEAR     80  53  39 E3        30.09S
$$

WVZ015-070100-
West Central West Virginia

CITY           SKY/WX    TMP DP  RH WIND       PRES   REMARKS
CHARLESTON     PTCLDY    81  53  37 CALM      30.09S
$$

WVZ022-031-070100-
North Central West Virginia

CITY           SKY/WX    TMP DP  RH WIND       PRES   REMARKS
CLARKSBURG     PTCLDY    76  55  48 W5        30.11S
MORGANTOWN     CLEAR     78  51  38 N7        30.13S
$$

WVZ025-035-042-045-070100-
Southern West Virginia

CITY           SKY/WX    TMP DP  RH WIND       PRES   REMARKS
BECKLEY        PTCLDY    73  48  41 NE3       30.19R
LOGAN            N/A     79  50  36 CALM      30.10S
BLUEFIELD      PTCLDY    71  53  52 SW5       30.22R
LEWISBURG      CLOUDY    71  53  54 N5        30.20R
$$

WVZ047-070100-
Northern Mountains of West Virginia

CITY           SKY/WX    TMP DP  RH WIND       PRES   REMARKS
ELKINS         CLEAR     76  49  38 N5        30.15S
$$

WVZ052-070100-
Eastern Panhandle of West Virginia

CITY           SKY/WX    TMP DP  RH WIND       PRES   REMARKS
MARTINSBURG    CLOUDY    71  60  68 E6        30.17R
PETERSBURG     MOCLDY    69  63  79 W6        30.14R
$$


USA.gov is the U.S. government's official web portal to all federal, state and local government web resources and services.